FW3877 Weather Reports


Display with metric or nautical units.
time (UTC)temp
F
wind
direction
speed
MPH
gust
MPH
rain 1hr
in
rain 24hr
in
rain mn
in
humidity
%
barometer
mb
20260904221704 54 258 9.0 12.0 0.00 0.12 0.12 93 1017.6
20260904221204 53 265 5.0 12.0 0.00 0.12 0.12 93 1017.6
20260904220704 53 251 6.0 10.0 0.00 0.12 0.12 93 1017.6
20260904220204 54 262 6.0 12.0 0.00 0.12 0.12 93 1017.5
20260904215704 54 261 9.0 13.0 0.00 0.12 0.12 93 1017.5
20260904214204 54 245 5.0 8.0 0.00 0.12 0.12 93 1017.3
20260904213704 54 238 5.0 7.0 0.00 0.12 0.12 93 1017.4
20260904212703 54 263 7.0 14.0 0.00 0.20 0.12 93 1017.1
20260904212204 54 252 6.0 12.0 0.00 0.30 0.12 93 1017.1
20260904211704 54 263 7.0 12.0 0.00 0.32 0.12 93 1017.1
20260904210705 54 250 5.0 8.0 0.00 0.35 0.12 93 1017.1
20260904205204 54 258 5.0 8.0 0.00 0.36 0.12 93 1017.0
20260904204204 53 251 3.0 7.0 0.00 0.36 0.12 92 1016.9
20260904203704 53 241 3.0 7.0 0.00 0.36 0.12 92 1016.8
20260904203204 54 245 5.0 7.0 0.00 0.36 0.12 92 1016.8
20260904202204 54 249 5.0 9.0 0.00 0.36 0.12 92 1016.7
20260904201704 54 266 5.0 9.0 0.00 0.36 0.12 92 1016.7
20260904201204 54 257 6.0 9.0 0.00 0.36 0.12 92 1016.6
20260904195704 55 249 5.0 9.0 0.00 0.36 0.12 92 1016.5
20260904195204 55 246 6.0 9.0 0.00 0.36 0.12 92 1016.4
20260904194704 55 252 6.0 12.0 0.00 0.36 0.12 92 1016.2
20260904193704 55 260 7.0 12.0 0.00 0.36 0.12 92 1016.0
20260904192704 55 243 5.0 8.0 0.00 0.36 0.12 92 1016.0
20260904192203 55 252 4.0 7.0 0.00 0.36 0.12 91 1015.9
20260904191204 55 255 6.0 9.0 0.00 0.36 0.12 92 1015.8
20260904190704 55 251 6.0 12.0 0.00 0.36 0.12 92 1015.6
20260904190204 55 251 6.0 12.0 0.00 0.36 0.12 92 1015.7
20260904185703 55 248 7.0 12.0 0.00 0.36 0.12 91 1015.5
20260904185204 55 253 5.0 9.0 0.00 0.36 0.12 91 1015.5
20260904184704 56 255 5.0 12.0 0.00 0.36 0.12 91 1015.4
20260904184204 56 265 7.0 14.0 0.00 0.36 0.12 91 1015.4
20260904183204 56 239 6.0 12.0 0.00 0.37 0.12 91 1015.2
20260904182704 56 258 8.0 12.0 0.00 0.37 0.12 91 1015.3
20260904182204 56 241 8.0 14.0 0.00 0.37 0.12 91 1015.3
20260904181704 56 254 9.0 14.0 0.00 0.37 0.12 91 1015.3
20260904181204 56 261 7.0 15.0 0.00 0.37 0.12 90 1015.3
20260904180204 56 258 7.0 12.0 0.00 0.37 0.12 90 1015.2
20260904175704 56 268 8.0 12.0 0.00 0.37 0.12 90 1015.2
20260904175204 56 271 6.0 16.0 0.00 0.38 0.12 89 1015.2
20260904174704 57 262 10.0 16.0 0.00 0.38 0.12 89 1015.0
20260904174203 56 268 6.0 12.0 0.00 0.38 0.12 88 1015.1
20260904173704 57 276 9.0 20.0 0.00 0.38 0.12 87 1015.0
20260904173205 58 270 11.0 21.0 0.00 0.39 0.12 85 1014.9
20260904172704 58 266 9.0 15.0 0.00 0.39 0.12 85 1014.8
20260904172204 59 258 6.0 17.0 0.00 0.39 0.12 84 1014.6
20260904171704 59 284 7.0 18.0 0.00 0.39 0.12 84 1014.6
20260904171204 59 266 7.0 17.0 0.00 0.39 0.12 84 1014.5
20260904170204 59 262 9.0 16.0 0.00 0.41 0.12 84 1014.4
20260904165704 59 259 10.0 15.0 0.00 0.41 0.12 84 1014.3
20260904165203 59 277 10.0 17.0 0.00 0.42 0.12 84 1014.2
20260904164705 59 279 7.0 15.0 0.00 0.42 0.12 85 1014.1
20260904164203 60 255 9.0 15.0 0.00 0.43 0.12 84 1014.0
20260904163704 60 265 8.0 16.0 0.00 0.43 0.12 84 1014.0
20260904163204 60 254 10.0 20.0 0.00 0.43 0.12 85 1014.0
20260904162704 59 263 7.0 12.0 0.00 0.44 0.12 85 1013.8
20260904162204 59 271 8.0 17.0 0.00 0.45 0.12 84 1013.8
20260904161705 59 264 11.0 20.0 0.00 0.46 0.12 84 1013.7
20260904161204 59 268 13.0 22.0 0.00 0.46 0.12 85 1013.7
20260904160203 60 267 10.0 18.0 0.00 0.48 0.12 84 1013.5
20260904155704 60 265 8.0 17.0 0.00 0.48 0.12 85 1013.6
20260904155204 60 264 10.0 18.0 0.00 0.50 0.12 85 1013.4
20260904154703 59 272 13.0 24.0 0.00 0.50 0.12 86 1013.4
20260904154204 59 264 7.0 13.0 0.00 0.51 0.12 87 1013.4
20260904153704 59 256 8.0 16.0 0.00 0.51 0.12 87 1013.4
20260904152704 59 267 8.0 16.0 0.00 0.51 0.12 87 1013.4
20260904152204 59 262 7.0 17.0 0.00 0.51 0.12 86 1013.4
20260904150704 59 263 14.0 24.0 0.02 0.51 0.12 86 1013.2
20260904150203 60 261 10.0 18.0 0.02 0.51 0.12 87 1013.3
20260904145204 59 276 10.0 20.0 0.02 0.51 0.12 88 1013.3
20260904144704 60 250 9.0 16.0 0.02 0.51 0.12 88 1013.2
20260904144204 59 250 10.0 16.0 0.02 0.51 0.12 89 1013.1
20260904143704 59 266 12.0 20.0 0.02 0.51 0.12 89 1013.1
20260904143204 59 251 11.0 20.0 0.02 0.52 0.12 91 1012.9
20260904142704 58 257 6.0 15.0 0.02 0.52 0.12 90 1013.0
20260904142204 58 253 10.0 18.0 0.02 0.52 0.12 90 1012.9
20260904141704 58 260 10.0 16.0 0.02 0.52 0.12 89 1012.9
20260904141203 58 270 12.0 26.0 0.02 0.53 0.12 88 1012.9
20260904140704 60 259 9.0 15.0 0.00 0.51 0.10 87 1012.7
20260904135704 59 250 13.0 22.0 0.00 0.51 0.10 87 1012.6
20260904134704 58 257 10.0 20.0 0.00 0.51 0.10 88 1012.7
20260904133703 58 271 10.0 20.0 0.00 0.51 0.10 86 1012.6
20260904131703 61 280 12.0 21.0 0.00 0.52 0.10 85 1012.2
20260904131204 60 264 11.0 20.0 0.01 0.52 0.10 85 1012.0
20260904130704 61 272 11.0 20.0 0.02 0.52 0.10 86 1012.1
20260904130204 61 254 10.0 26.0 0.02 0.52 0.10 85 1012.0
20260904125704 61 283 11.0 23.0 0.02 0.52 0.10 85 1012.0
20260904125204 61 269 15.0 23.0 0.02 0.52 0.10 87 1011.8
20260904124703 61 256 14.0 17.0 0.02 0.52 0.10 88 1011.7
20260904122703 59 264 6.0 15.0 0.06 0.53 0.10 91 1011.8
20260904121204 57 260 8.0 20.0 0.07 0.53 0.10 89 1011.7
20260904120704 59 263 8.0 12.0 0.06 0.50 0.08 90 1011.6
20260904120204 58 277 7.0 14.0 0.06 0.50 0.08 91 1011.4
20260904115703 58 267 6.0 13.0 0.06 0.50 0.08 91 1011.4
20260904115204 57 280 6.0 13.0 0.06 0.50 0.08 90 1011.5
20260904114704 57 288 9.0 17.0 0.06 0.50 0.08 90 1011.4
20260904114204 56 279 9.0 20.0 0.07 0.50 0.08 89 1011.5
20260904113704 58 280 10.0 18.0 0.06 0.49 0.06 90 1011.5
20260904113204 58 280 6.0 13.0 0.04 0.47 0.05 89 1011.3
20260904112704 58 273 6.0 12.0 0.04 0.47 0.05 89 1011.2
20260904112204 58 264 6.0 13.0 0.02 0.46 0.03 88 1011.1
20260904111704 58 278 7.0 14.0 0.02 0.46 0.03 86 1011.0
20260904111204 59 296 9.0 18.0 0.02 0.46 0.03 84 1011.1
20260904110704 60 268 9.0 17.0 0.01 0.44 0.02 84 1010.8
20260904110203 61 265 9.0 16.0 0.01 0.44 0.02 85 1010.6
20260904105704 60 269 9.0 17.0 0.01 0.44 0.02 86 1010.7
20260904105204 60 272 9.0 15.0 0.01 0.44 0.02 86 1010.6
20260904104704 60 259 5.0 16.0 0.01 0.44 0.02 83 1010.6
20260904104204 61 263 12.0 26.0 0.00 0.43 0.01 81 1010.5
20260904103703 61 289 9.0 16.0 0.00 0.43 0.01 83 1010.4
20260904103204 60 278 9.0 15.0 0.00 0.43 0.01 83 1010.4
20260904102704 60 265 7.0 16.0 0.00 0.43 0.01 83 1010.4
20260904102204 60 266 9.0 20.0 0.00 0.43 0.01 83 1010.4
20260904101704 60 285 12.0 18.0 0.00 0.43 0.01 83 1010.4
20260904101204 60 262 10.0 18.0 0.00 0.43 0.01 84 1010.3
20260904100704 60 264 9.0 17.0 0.00 0.43 0.01 84 1010.3
20260904100204 60 257 6.0 15.0 0.00 0.43 0.01 85 1010.2
20260904095703 60 276 8.0 14.0 0.00 0.43 0.01 86 1010.1
20260904095204 60 252 9.0 18.0 0.00 0.43 0.01 85 1010.0
20260904094703 60 268 9.0 15.0 0.00 0.43 0.01 86 1009.9
20260904094204 60 243 6.0 13.0 0.00 0.43 0.01 86 1010.0
20260904093704 59 259 10.0 20.0 0.00 0.43 0.01 86 1009.8
20260904092204 59 268 8.0 20.0 0.00 0.43 0.01 89 1009.5
20260904091704 58 272 7.0 17.0 0.00 0.44 0.01 89 1009.5
20260904091203 58 267 9.0 14.0 0.00 0.44 0.01 89 1009.4
20260904090704 58 265 9.0 16.0 0.00 0.45 0.01 90 1009.4
20260904090204 58 277 10.0 16.0 0.00 0.45 0.01 90 1009.3
20260904085704 58 255 7.0 16.0 0.00 0.45 0.01 91 1009.3
20260904084204 57 267 10.0 17.0 0.00 0.45 0.01 91 1009.0
20260904083704 57 268 7.0 18.0 0.00 0.45 0.01 91 1008.9
20260904083204 57 257 12.0 22.0 0.00 0.45 0.01 91 1008.8
20260904082703 57 267 11.0 17.0 0.00 0.45 0.01 91 1008.5
20260904082204 57 251 10.0 18.0 0.00 0.45 0.01 91 1008.5
20260904081703 57 252 12.0 18.0 0.00 0.46 0.01 91 1008.5
20260904081204 57 255 12.0 20.0 0.00 0.47 0.01 91 1008.2
20260904080704 57 249 9.0 15.0 0.00 0.47 0.01 91 1008.2
20260904075704 57 243 10.0 20.0 0.00 0.47 0.01 91 1008.2
20260904075204 57 254 11.0 16.0 0.00 0.47 0.01 91 1008.2
20260904074703 57 254 12.0 20.0 0.00 0.47 0.01 90 1008.1
20260904074204 57 250 13.0 20.0 0.00 0.47 0.01 90 1008.0
20260904073704 57 252 9.0 18.0 0.00 0.47 0.01 90 1007.9
20260904073204 56 253 7.0 16.0 0.00 0.47 0.01 90 1007.8
20260904072704 56 255 7.0 13.0 0.00 0.47 0.01 90 1007.5
20260904071704 55 238 9.0 15.0 0.00 0.47 0.01 90 1007.6
20260904071204 55 250 7.0 14.0 0.00 0.47 0.01 90 1007.5
20260904070704 55 253 10.0 17.0 0.00 0.47 0.01 90 1007.4
20260904070204 55 257 12.0 17.0 0.00 0.47 0.01 90 1007.3
20260904064203 56 257 8.0 15.0 0.00 0.47 0.01 89 1007.2
20260904063704 56 253 10.0 16.0 0.00 0.47 0.01 89 1007.2
20260904063204 56 254 9.0 13.0 0.00 0.47 0.01 89 1007.1
20260904062704 56 245 7.0 15.0 0.00 0.47 0.01 89 1007.1
20260904062204 56 247 6.0 13.0 0.00 0.47 0.01 89 1007.0
20260904061704 55 239 9.0 13.0 0.00 0.47 0.01 89 1007.1
20260904061204 55 233 7.0 12.0 0.00 0.47 0.01 89 1006.9
20260904060703 55 253 8.0 15.0 0.00 0.48 0.01 89 1006.9
20260904055703 55 254 8.0 13.0 0.00 0.48 0.01 89 1007.0
20260904055204 55 239 7.0 14.0 0.00 0.48 0.01 88 1007.0
20260904054704 56 242 12.0 20.0 0.00 0.48 0.01 88 1007.0
20260904054204 56 245 9.0 13.0 0.00 0.48 0.01 88 1006.9
20260904053705 56 254 7.0 12.0 0.00 0.48 0.01 88 1006.6
20260904053204 56 239 6.0 9.0 0.00 0.48 0.01 88 1006.4
20260904052704 56 256 7.0 14.0 0.00 0.48 0.01 88 1006.4
20260904052205 56 256 5.0 13.0 0.00 0.48 0.01 88 1006.4
20260904051204 56 255 7.0 13.0 0.00 0.48 0.01 88 1006.5
20260904050704 56 246 5.0 10.0 0.00 0.48 0.01 88 1006.4
20260904050204 56 263 8.0 12.0 0.00 0.48 0.01 88 1006.4
20260904045703 56 249 7.0 12.0 0.00 0.48 0.01 88 1006.5
20260904045204 56 238 7.0 12.0 0.00 0.48 0.01 89 1006.4
20260904044704 56 241 7.0 12.0 0.00 0.48 0.01 89 1006.5
20260904043704 56 245 8.0 14.0 0.00 0.48 0.01 90 1006.3
20260904043204 56 253 7.0 12.0 0.00 0.48 0.01 90 1006.3
20260904042705 56 252 6.0 12.0 0.00 0.48 0.01 90 1006.2
20260904042203 55 240 6.0 12.0 0.00 0.48 0.01 90 1006.2
20260904041204 56 234 9.0 12.0 0.00 0.48 0.01 90 1006.2
20260904040703 56 252 9.0 13.0 0.00 0.48 0.01 90 1006.2
20260904040204 56 244 7.0 15.0 0.00 0.48 0.01 90 1006.2
20260904035704 56 234 6.0 14.0 0.00 0.48 0.01 90 1006.1
20260904035205 55 249 8.0 13.0 0.00 0.48 0.01 90 1005.9
20260904034704 55 257 7.0 13.0 0.00 0.48 0.01 90 1006.0
20260904034204 55 234 6.0 12.0 0.00 0.49 0.01 90 1006.0
20260904033704 56 235 6.0 12.0 0.00 0.49 0.01 90 1005.8
20260904033204 56 243 8.0 14.0 0.00 0.49 0.01 90 1005.8
20260904032704 56 240 6.0 12.0 0.00 0.49 0.01 90 1005.8
20260904032204 56 242 9.0 12.0 0.00 0.49 0.01 90 1005.9
20260904031704 56 238 6.0 12.0 0.00 0.49 0.01 90 1005.8
20260904031204 56 242 7.0 12.0 0.00 0.49 0.01 90 1005.9
20260904025705 56 262 8.0 15.0 0.01 0.49 0.01 91 1005.6
20260904025203 55 233 8.0 13.0 0.01 0.49 0.01 91 1005.6
20260904024704 55 244 5.0 12.0 0.01 0.49 0.01 90 1005.6
20260904024204 55 243 5.0 12.0 0.01 0.49 0.01 90 1005.5
20260904023704 55 238 6.0 15.0 0.01 0.49 0.01 90 1005.4
20260904023204 55 246 7.0 12.0 0.01 0.49 0.01 90 1005.7
20260904022704 55 244 7.0 14.0 0.01 0.49 0.01 90 1005.6
20260904022205 55 240 9.0 17.0 0.01 0.49 0.01 90 1005.9
20260904021704 55 256 8.0 15.0 0.01 0.49 0.01 90 1005.6
20260904021204 55 248 8.0 18.0 0.01 0.49 0.01 90 1005.6
20260904020704 55 241 11.0 17.0 0.01 0.49 0.01 90 1005.8
20260904020204 55 252 9.0 15.0 0.00 0.48 0.00 90 1005.9
20260904015704 55 243 9.0 18.0 0.00 0.48 0.00 90 1005.8
20260904015204 56 255 9.0 15.0 0.00 0.48 0.00 90 1005.9
20260904014704 56 241 10.0 17.0 0.00 0.49 0.00 90 1005.9
20260904013704 56 250 6.0 12.0 0.00 0.50 0.00 90 1006.1
20260904013204 56 271 5.0 10.0 0.00 0.51 0.00 90 1005.8
20260904012704 56 240 5.0 9.0 0.00 0.51 0.00 91 1005.9
20260904011704 56 248 8.0 12.0 0.00 0.51 0.00 91 1006.0
20260904011204 56 265 9.0 12.0 0.00 0.51 0.00 91 1005.9
20260904010705 56 245 7.0 12.0 0.00 0.51 0.00 91 1005.8
20260904005704 56 249 7.0 12.0 0.00 0.51 0.00 92 1005.9
20260904005204 56 249 7.0 14.0 0.00 0.51 0.00 92 1006.1
20260904004704 56 244 7.0 14.0 0.00 0.51 0.00 93 1006.0
20260904004203 56 260 9.0 13.0 0.00 0.51 0.00 93 1005.9
20260904003703 56 247 7.0 14.0 0.00 0.51 0.00 93 1006.0
20260904003204 56 245 7.0 13.0 0.00 0.51 0.00 93 1006.1
20260904002704 56 251 5.0 10.0 0.00 0.51 0.00 93 1006.1
20260904002203 56 247 5.0 10.0 0.00 0.51 0.00 94 1006.3
20260904001704 56 251 5.0 10.0 0.00 0.51 0.00 94 1006.2
20260904000704 56 259 5.0 8.0 0.00 0.51 0.00 94 1006.2
20260904000204 56 253 6.0 9.0 0.00 0.51 0.00 94 1006.5
20260903235705 56 247 7.0 10.0 0.00 0.51 0.00 94 1006.3
20260903235204 56 257 5.0 10.0 0.00 0.51 0.00 94 1006.3
20260903234704 56 246 4.0 8.0 0.00 0.51 0.00 94 1006.0
20260903234204 56 248 5.0 9.0 0.00 0.51 0.00 94 1006.0
20260903233205 56 245 6.0 10.0 0.00 0.51 0.00 95 1006.4
20260903232204 56 241 5.0 9.0 0.00 0.51 0.00 95 1005.9
20260903231204 56 253 5.0 10.0 0.00 0.51 0.00 95 1006.2
20260903230704 56 241 5.0 7.0 0.00 0.51 0.00 95 1006.2
20260903230204 56 246 5.0 10.0 0.00 0.51 0.00 95 1006.2
20260903225204 56 242 6.0 12.0 0.00 0.51 0.48 96 1006.1
20260903224704 56 242 5.0 9.0 0.00 0.51 0.48 96 1006.0
20260903223703 56 252 7.0 13.0 0.00 0.51 0.48 96 1006.2
20260903223204 56 245 6.0 10.0 0.00 0.52 0.48 96 1006.4